STARLINK-32122, 60285

Orbit data source: Space-Track

STARLINK-32122, 60285 is a payload satellite owned by SpaceX/Seattle (US) in LEO that was launched on Sun, 28 Jul 2024 UTC via an FALCON 9 launch vehicle from the Air Force Eastern Test Range (AFETR). Payload-class satellites include a variety of spacecraft equipped with specific instruments for various scientific and technological missions. These include communications satellites like Starlink; space stations such as the ISS; scientific satellites like the Hubble; Earth observation satellites from companies like Planet Labs, Umbra, and HawkEye 360; GPS; miniature CubeSats for education and research; and military/defense satellites.

Loading next visibility...
Identifier
60285, 2024-132H
Orbit
LEO
Last TLE update
20 hours ago
Origin
Manufacturer
SpaceX/Seattle
Mission
Operational spacecraft
Bus & Motor
STARLINK V2M, Unknown motor
Mass
730 kg wet, ~700 kg dry
Launch date (UTC)
2024-07-28 (9 months ago)
Launch vehicle
FALCON 9
Launch site
Air Force Eastern Test Range (AFETR)
Object type
Payload
Rocket body
Debris
Shape & HBR
Unknown
Radar Cross Section
Large (>1 m²)

Expand to show TLE details & history

TLE from 20 hours ago
0 STARLINK-32122
1 60285U 24132H   25128.95461485 -.00000387  00000-0 -94911-6 0  9993
2 60285  53.1618  27.9276 0001041  94.8173 265.2947 15.30194645 44908
Epoch: 2025-05-08T22:54Z
Definitive object data (Epoch: 2025-05-08T22:54:38.723Z)
Latitude
0.00003°
Longitude
177.24858°
Altitude
476.19 km
Speed
7.629 km/s
True Right ascension
01h 51m 42s
True Declination
0° 00' 00"
Sunlit
Object was in daylight at TLE epoch
Visualization TLE readout
Latitude
-32.99912°
Longitude
22.35293°
Altitude
485.963 km
Speed
7.622 km/s
Apparent Right ascension
15h 13m 48s
Apparent Declination
-36° 15' 25"
Sunlit
Object is in full shadow
Visualization observer readout
Local Sidereal Time
02:52:15
Azimuth
309.093° NW
Elevation
-84.4°
Doppler factor
1
Orbital elements
Apogee altitude
476.201 km
Perigee altitude
474.774 km
Semi-major axis
6,853.624 km
Eccentricity
0.0001041
Inclination
53.1618°
RAAN
27.9276°
Arg. of periapsis
94.8173°
True anomaly
265.28281°
Mean anomaly
265.2947°
Eccentric anomaly
265.28876°
Mean motion
3.82528 °/min
BSTAR
-9.4911e-7
Orbital period
94.11 mins
Loading maneuver chart data...
Loading SW <> Apogee altitude chart data...
Loading historical data...
Loading historical data...
Loading historical data...
Loading historical data...
Loading historical data...
Loading historical data...
Loading historical data...

STARLINK-32122 Visibility forecast

Observer location: undefined°, undefined°

Span
Click to sort rows by Start time (UTC) header in descending order
Start Az.
Max El. time (UTC)
Max El. Az.
Max El.
End time (UTC)
End Az.
6 mins2025-05-09 19:27:24.158Z204.344° SW2025-05-09 19:30:24.158Z119.863° SE35.283°2025-05-09 19:33:24.158Z62.063° ENE
4 mins2025-05-09 21:06:24.158Z289.675° WNW2025-05-09 21:08:24.158Z338.437° N23.372°2025-05-09 21:10:24.158Z20.851° NNE
5 mins2025-05-10 02:03:24.158Z338.298° N2025-05-10 02:05:24.158Z48.903° ENE32.928°2025-05-10 02:08:24.158Z105.159° ESE
4 mins2025-05-10 03:41:24.158Z263.335° W2025-05-10 03:42:24.158Z240.951° WSW21.137°2025-05-10 03:45:24.158Z179.824° S
|